Showing default

GALILEO 9 (205), 40889

Orbit data source: Space-Track

GALILEO 9 (205), 40889 is a payload satellite owned by GNSS Agency (ESA) that was launched on Fri, 11 Sep 2015 UTC via a SOYUZ-ST-B launch vehicle from the French Guiana (FRGUI). Payload-class satellites include a variety of spacecraft equipped with specific instruments for various scientific and technological missions. These include communications satellites like Starlink; space stations such as the ISS; scientific satellites like the Hubble; Earth observation satellites from companies like Planet Labs, Umbra, and HawkEye 360; GPS; miniature CubeSats for education and research; and military/defense satellites.

Loading next visibility...
Identifier
40889, 2015-045A
Orbit
Active
Last TLE update
3 days ago
Origin
Manufacturer
OHB
Mission
Operational Civil Navigation
Bus & Motor
GALILEOSAT, AOCS
Mass
733 kg wet, 660 kg dry
Launch date (UTC)
2015-09-11 (10 years ago)
Launch vehicle
SOYUZ-ST-B
Launch site
French Guiana (FRGUI)
Object type
Payload
Rocket body
Debris
Shape & HBR
Box + 2 Pan, 7.4 m
Radar Cross Section
9.223 m², Large (>1 m²)

Expand to show TLE details & history

TLE from 3 days ago
0 GALILEO 9 (205)
1 40889U 15045A   25197.12344942  .00000070  00000-0  00000-0 0  9994
2 40889  55.0573 230.8871 0002855  16.1151 343.9621  1.70473652 61280
Epoch: 2025-07-16T02:57Z
TLE epoch observation values (Epoch: 2025-07-16T02:57:46.029Z)
Latitude
-0.00009°
Longitude
-107.747°
Altitude
23,214.364 km
Speed
3.671 km/s
True Right ascension
15h 23m 36s
True Declination
0° 00' 00"
Sunlit
Object was in daylight at epoch
Visualization orbit readout
Latitude
-40.50229°
Longitude
-144.43909°
Altitude
23,232.939 km
Speed
3.669 km/s
Apparent Right ascension
13h 10m 45s
Apparent Declination
-52° 38' 06"
Sunlit
Object is in daylight
Visualization observer readout
Local Sidereal Time
12:05:56
Azimuth
170.23° S
Elevation
-3.612°
Doppler factor
1
Orbital elements
Apogee altitude
23,230.681 km
Perigee altitude
23,213.779 km
Semi-major axis
29,600.367 km
Eccentricity
0.00029
Inclination
55.0573°
RAAN
230.8871°
Arg. of periapsis
16.1151°
True anomaly
343.95306°
Mean anomaly
343.9621°
Eccentric anomaly
343.95758°
Mean motion
0.42618 °/min
Orbital period
844.7 mins
BSTAR
0
Loading maneuver chart data...
Loading SW <> Apogee altitude chart data...
Loading historical data...
Loading historical data...
Loading historical data...
Loading historical data...
Loading historical data...
Loading historical data...
Loading historical data...
Other satellites on launch #45 in the year 2015 (2015-09-11 UTC)
|